Weather History for Olbia / Costa Smeralda, Italy

Change the Weather History Date:

Wednesday, November 6, 2013

  Actual Average Record
Temperature  
Mean Temperature 70 °F -  
Max Temperature 73 °F 61 °F - ()
Min Temperature 66 °F 45 °F - ()
Cooling Degree Days 4    
Growing Degree Days 20 (Base 50)    
Moisture  
Dew Point 56 °F    
Average Humidity 65    
Maximum Humidity 73    
Minimum Humidity 53    
Precipitation  
Precipitation 0.00 in 0.08 in - ()
Sea Level Pressure  
Sea Level Pressure 29.79 in    
Wind  
Wind Speed 18 mph ()    
Max Wind Speed 26 mph    
Max Gust Speed 38 mph    
Visibility 6.2 miles    
Events      
T = Trace of Precipitation, MM = Missing Value Source: Averaged Metar Reports

Daily Weather History Graph

Daily Weather History Graph

Search for Another Location

Airport:

Trip Planner

Search our weather history database for the weather conditions in past years. The results will help you decide how hot, cold, wet, or windy it might be!

Date:

Astronomy

Nov. 06, 2013 Rise Set
Actual Time 6:58 AM CET 5:12 PM CET
Civil Twilight 6:29 AM CET 5:40 PM CET
Nautical Twilight 5:56 AM CET 6:13 PM CET
Astronomical Twilight 5:24 AM CET 6:45 PM CET
Moon 9:58 AM CET (11/6) 7:58 PM CET (11/6)
Length of Visible Light 11h 11m
Length of Day
10h 13m
Waxing Crescent, 11% of the Moon is Illuminated
Nov 6
Waxing Crescent
Nov 10
First Quarter
Nov 17
Full
Nov 25
Last Quarter
Dec 3
New

Hourly Weather History & Observations

Time (CET) Temp. Dew Point Humidity Pressure Visibility Wind Dir Wind Speed Gust Speed Precip Events Conditions
12:20 AM 66.2 °F 55.4 °F 68% 29.62 in 6.2 mi WSW 13.8 mph - N/A   Scattered Clouds
12:50 AM 66.2 °F 57.2 °F 73% 29.62 in 6.2 mi WSW 18.4 mph - N/A   Scattered Clouds
1:20 AM 68.0 °F 55.4 °F 64% 29.65 in 6.2 mi West 17.3 mph 28.8 mph N/A   Scattered Clouds
1:50 AM 66.2 °F 57.2 °F 73% 29.62 in 6.2 mi WSW 17.3 mph - N/A   Scattered Clouds
2:20 AM 66.2 °F 55.4 °F 68% 29.62 in 6.2 mi WSW 20.7 mph 33.4 mph N/A   Scattered Clouds
2:50 AM 66.2 °F 57.2 °F 73% 29.62 in 6.2 mi WSW 23.0 mph 34.5 mph N/A   Scattered Clouds
3:20 AM 68.0 °F 55.4 °F 64% 29.65 in 6.2 mi WSW 19.6 mph - N/A   Scattered Clouds
3:50 AM 66.2 °F 55.4 °F 68% 29.62 in 6.2 mi WSW 23.0 mph - N/A   Scattered Clouds
4:20 AM 66.2 °F 55.4 °F 68% 29.65 in 6.2 mi WSW 21.9 mph - N/A   Scattered Clouds
4:50 AM 68.0 °F 55.4 °F 64% 29.65 in 6.2 mi WSW 25.3 mph - N/A   Scattered Clouds
5:20 AM 68.0 °F 55.4 °F 64% 29.65 in 6.2 mi West 24.2 mph 38.0 mph N/A   Scattered Clouds
5:50 AM 68.0 °F 55.4 °F 64% 29.68 in 6.2 mi West 18.4 mph - N/A   Scattered Clouds
6:20 AM 68.0 °F 55.4 °F 64% 29.71 in 6.2 mi WSW 20.7 mph - N/A   Scattered Clouds
6:50 AM 68.0 °F 55.4 °F 64% 29.68 in 6.2 mi WSW 26.5 mph - N/A   Mostly Cloudy
7:20 AM 68.0 °F 55.4 °F 64% 29.71 in 6.2 mi West 21.9 mph 34.5 mph N/A   Scattered Clouds
7:50 AM 68.0 °F 55.4 °F 64% 29.71 in 6.2 mi West 17.3 mph - N/A   Scattered Clouds
8:20 AM 68.0 °F 55.4 °F 64% 29.74 in 6.2 mi West 24.2 mph 38.0 mph N/A   Partly Cloudy
8:50 AM 68.0 °F 53.6 °F 60% 29.77 in 6.2 mi West 23.0 mph - N/A   Partly Cloudy
9:20 AM 68.0 °F 55.4 °F 64% 29.80 in 6.2 mi West 16.1 mph - N/A   Partly Cloudy
9:50 AM 69.8 °F 55.4 °F 60% 29.77 in 6.2 mi West 23.0 mph 34.5 mph N/A   Partly Cloudy
10:20 AM 69.8 °F 55.4 °F 60% 29.80 in 6.2 mi West 17.3 mph - N/A   Scattered Clouds
10:50 AM 69.8 °F 53.6 °F 56% 29.83 in 6.2 mi West 20.7 mph 32.2 mph N/A   Scattered Clouds
11:20 AM 69.8 °F 55.4 °F 60% 29.83 in 6.2 mi West 20.7 mph - N/A   Partly Cloudy
11:50 AM 71.6 °F 55.4 °F 57% 29.83 in 6.2 mi West 24.2 mph 38.0 mph N/A   Partly Cloudy
12:20 PM 73.4 °F 55.4 °F 53% 29.83 in 6.2 mi West 20.7 mph 33.4 mph N/A   Partly Cloudy
12:50 PM 73.4 °F 55.4 °F 53% 29.83 in 6.2 mi West 24.2 mph - N/A   Partly Cloudy
1:20 PM 73.4 °F 57.2 °F 57% 29.83 in 6.2 mi WSW 23.0 mph - N/A   Partly Cloudy
1:50 PM 71.6 °F 57.2 °F 60% 29.83 in 6.2 mi WSW 24.2 mph 36.8 mph N/A   Partly Cloudy
2:20 PM 71.6 °F 57.2 °F 60% 29.83 in 6.2 mi West 16.1 mph - N/A   Partly Cloudy
2:50 PM 71.6 °F 57.2 °F 60% 29.86 in 6.2 mi WSW 16.1 mph - N/A   Partly Cloudy
3:20 PM 71.6 °F 57.2 °F 60% 29.86 in 6.2 mi WSW 15.0 mph - N/A   Partly Cloudy
3:50 PM 71.6 °F 57.2 °F 60% 29.86 in 6.2 mi WSW 15.0 mph - N/A   Partly Cloudy
4:20 PM 69.8 °F 57.2 °F 64% 29.86 in 6.2 mi West 17.3 mph - N/A   Partly Cloudy
4:50 PM 69.8 °F 57.2 °F 64% 29.86 in 6.2 mi WSW 17.3 mph - N/A   Partly Cloudy
5:20 PM 68.0 °F 57.2 °F 68% 29.86 in 6.2 mi WSW 13.8 mph - N/A   Partly Cloudy
5:50 PM 68.0 °F 59.0 °F 73% 29.86 in 6.2 mi WSW 17.3 mph - N/A   Partly Cloudy
6:20 PM 68.0 °F 57.2 °F 68% 29.86 in - WSW 19.6 mph - N/A   Clear
6:50 PM 68.0 °F 57.2 °F 68% 29.89 in - WSW 16.1 mph - N/A   Clear
7:20 PM 68.0 °F 59.0 °F 73% 29.89 in - WSW 16.1 mph - N/A   Clear
7:50 PM 68.0 °F 59.0 °F 73% 29.89 in - WSW 18.4 mph - N/A   Clear
8:20 PM 68.0 °F 57.2 °F 68% 29.89 in - WSW 18.4 mph - N/A   Clear
8:50 PM 68.0 °F 57.2 °F 68% 29.92 in - WSW 17.3 mph 28.8 mph N/A   Clear
9:20 PM 68.0 °F 57.2 °F 68% 29.95 in - WSW 16.1 mph - N/A   Clear
9:50 PM 68.0 °F 57.2 °F 68% 29.95 in - WSW 17.3 mph 28.8 mph N/A   Clear
10:20 PM 68.0 °F 57.2 °F 68% 29.95 in - SW 12.7 mph - N/A   Clear
10:50 PM 68.0 °F 57.2 °F 68% 29.95 in - SW 15.0 mph 27.6 mph N/A   Clear
11:20 PM 68.0 °F 57.2 °F 68% 29.95 in - WSW 17.3 mph - N/A   Clear
11:50 PM 68.0 °F 57.2 °F 68% 29.95 in - WSW 16.1 mph - N/A   Clear